This is the latest recevied weather packets stored in our database for station/object CE1RLP-34. If no packets are shown the sender has not sent any weather packets the latest 10 day(s).
| Time | Temp. | Humidity | Pressure | Rain* | Wind** | Luminosity | Snow |
|---|---|---|---|---|---|---|---|
| 1777350901 | 5.56° C | 10% | 1082.2 hPa | - | - | - | - |
| 1777349998 | 5.56° C | 10% | 1082.4 hPa | - | - | - | - |
| 1777349098 | 5.56° C | 11% | 1082.5 hPa | - | - | - | - |
| 1777348195 | 5.56° C | 12% | 1082.6 hPa | - | - | - | - |
| 1777347295 | 5.56° C | 12% | 1082.7 hPa | - | - | - | - |
| 1777346393 | 6.11° C | 12% | 1082.6 hPa | - | - | - | - |
| 1777345493 | 6.11° C | 12% | 1082.7 hPa | - | - | - | - |
| 1777344590 | 6.67° C | 13% | 1082.5 hPa | - | - | - | - |
| 1777343690 | 7.22° C | 13% | 1082.6 hPa | - | - | - | - |
| 1777342788 | 7.22° C | 14% | 1082.7 hPa | - | - | - | - |
| 1777341888 | 7.78° C | 16% | 1082.6 hPa | - | - | - | - |
| 1777340986 | 7.78° C | 18% | 1082.6 hPa | - | - | - | - |
| 1777339183 | 7.78° C | 18% | 1082.5 hPa | - | - | - | - |
| 1777338283 | 7.78° C | 19% | 1082.5 hPa | - | - | - | - |
| 1777337380 | 8.33° C | 19% | 1082.4 hPa | - | - | - | - |
| 1777336480 | 8.89° C | 19% | 1082.4 hPa | - | - | - | - |
| 1777335578 | 9.44° C | 16% | 1082.3 hPa | - | - | - | - |
| 1777333805 | 10.56° C | 17% | 1082.1 hPa | - | - | - | - |
| 1777332905 | 10.56° C | 16% | 1081.3 hPa | - | - | - | - |
| 1777332002 | 11.67° C | 15% | 1082 hPa | - | - | - | - |
| 1777331102 | 12.78° C | 14% | 1082.1 hPa | - | - | - | - |
| 1777330200 | 14.44° C | 11% | 1082 hPa | - | - | - | - |
| 1777329300 | 15.56° C | 11% | 1081.8 hPa | - | - | - | - |
| 1777328397 | 17.22° C | 10% | 1081.8 hPa | - | - | - | - |
| 1777327497 | 17.78° C | 10% | 1081.8 hPa | - | - | - | - |
* Rain since midnight (hover to see other rain measurements)
** Current wind speed in m/s (hover to see current wind gust speed)